Regional Weather Roundup
Issued by NWS Albany, NY

Home | Current Version | Previous Version | Text Only | Print | Product List | Glossary On
Versions: 1 2 3 4 5 6 7 8 9 10 11 12 13 14 15 16 17 18 19 20 21 22 23 24 25 26 27
000
ASUS41 KALY 180610
RWRALY

NEW YORK STATE HOURLY WEATHER ROUNDUP
NATIONAL WEATHER SERVICE ALBANY NY
100 AM EST WED JAN 18 2017

NOTE: "FAIR" INDICATES FEW OR NO CLOUDS BELOW 12,000 FEET WITH NO
SIGNIFICANT WEATHER AND/OR NO OBSTRUCTIONS TO VISIBILITY.

NYZ032-033-038>043-046>054-057>066-NYZ062>081-082-084-180700-
EAST


CITY           SKY/WX    TMP DP  RH WIND       PRES   REMARKS
ALBANY         LGT RAIN  34  31  88 S5        29.96F FOG     WCI  30
GLENS FALLS    FRZ RAIN  33  30  88 CALM      29.96F FOG
POUGHKEEPSIE   MIX PCPN  33  32  96 E5        29.94F FOG     WCI  29
NEWBURGH       LGT RAIN  34  34 100 NE9       29.95F FOG     WCI  26
MONTGOMERY     CLOUDY    34  32  92 N8        29.94F WCI  27
WHITE PLAINS   CLOUDY    37  35  92 E12       29.90F WCI  29
ISLIP          LGT RAIN  41  41 100 N7        29.92F FOG
NEW YORK CITY  DRIZZLE   39  37  92 NE17      29.92F FOG     WCI  30
CENTRAL PARK   CLOUDY    38  37  97 E9        29.93F FOG     WCI  31
$$

NYZ005>009-017-018-044>046-055-056-180700-
CENTRAL


CITY           SKY/WX    TMP DP  RH WIND       PRES   REMARKS
FULTON         LGT RAIN  36  35  96 VRB6      29.81F FOG     WCI  31
SYRACUSE       LGT RAIN  37  34  89 E9        29.82F FOG     WCI  30
ROME           LGT RAIN  34  34 100 SE10      29.88F FOG     WCI  26
ELMIRA         LGT RAIN  37  35  92 CALM      29.84S FOG
BINGHAMTON     MIX PCPN  33  33 100 SE7       29.83F VSB 1   WCI  27
MONTICELLO     CLOUDY    30  30 100 CALM      29.90F
$$

NYZ026>034-041>043-087-180700-
NORTH


CITY           SKY/WX    TMP DP  RH WIND       PRES   REMARKS
WATERTOWN      MIX PCPN  35  35 100 N5        29.80S VSB 1   WCI  31
FORT DRUM      NOT AVBL
OGDENSBURG     LGT RAIN  32  32  99 E8        29.85F WCI  25
MASSENA        LGT SNOW  27  26  96 NE9       29.90F FOG     WCI  18
SARANAC LAKE   MIX PCPN  33  28  81 MISG      29.82F
PLATTSBURGH    FLURRIES  33  32  96 S13       29.95F WCI  24
$$

NYZ001>004-010>016-019>021-085-180700-
WEST


CITY           SKY/WX    TMP DP  RH WIND       PRES   REMARKS
NIAGARA FALLS  FOG       37  35  92 SW8       29.82R VSB 1/2 WCI  31
BUFFALO        LGT RAIN  37  36  96 SW13      29.82R FOG     WCI  29
DUNKIRK        CLOUDY    39  38  96 SW16G23   29.85R FOG     WCI  30
JAMESTOWN      CLOUDY    39  36  87 W16       29.83R WCI  30
WELLSVILLE     CLOUDY    41  39  93 CALM      29.81S FOG
ROCHESTER      CLOUDY    45  42  89 W9        29.79S
PENN YAN       CLOUDY    40  35  83 S12       29.81S WCI  33
$$

             KEY
       WCI = WIND CHILL INDEX
       VSB = VISIBILITY
       HX  = HEAT INDEX
$$




USA.gov is the U.S. government's official web portal to all federal, state and local government web resources and services.